Location: Unspecified
(0.0000°N, 0.0000°E)
Time: 19:14:35
(UTC+00:00)

CZ-3B DEB - Visible Passes

Search period start: 10 April 2026 00:00
Search period end: 20 April 2026 00:00
Orbit: 943 x 41239 km, 26.9° (Epoch: 8 April)

Date Brightness Start Highest point End Pass type
(mag) Time Alt. Az. Time Alt. Az. Time Alt. Az.
11 Apr ? 16:45:33 10° ENE 19:45:03 24° ENE 21:04:46 10° E visible
12 Apr ? 15:34:57 10° ENE 21:07:22 43° ENE 22:37:06 10° E visible
13 Apr ? 11:55:26 10° SW 22:42:33 60° NE 23:58:15 10° E visible
14 Apr ? 13:08:23 10° SW 00:35:35 75° NNE 01:15:12 10° ESE visible
15 Apr ? 14:22:06 10° WSW 21:23:28 60° N 02:30:05 10° ESE visible
16 Apr ? 15:36:57 10° W 19:53:11 59° N 03:43:47 10° SE visible
17 Apr ? 16:53:43 10° W 18:11:31 58° NNW 04:56:44 10° SSE visible
18 Apr ? 18:14:07 10° W 19:58:04 46° NW 06:08:48 10° S daylight
